2010 YK3彗星

471P/2010 YK3 (2023)

English version
Home page
Updated on May 15, 2024

---------------------------------------------------------------------

・ プロフィール

符号 471P/2023 KF3
発見日 2023年5月24日
発見光度 20.6等
発見者 Mt. Lemmon

・ 写真集

・ 軌道要素

Epoch 2024 Mar. 31.0 TT = JDT 2460400.5
T 2023 Dec. 20.26411 TT                                 Rudenko
q   2.1231495            (2000.0)            P               Q
n   0.07220182     Peri.   94.96853     +0.94609250     -0.31353203
a   5.7117688      Node   283.32146     +0.25409324     +0.87407280
e   0.6282851      Incl.    4.79143     +0.20086215     +0.37107198
P  13.7
>From 908 observations 1996 June 23-2024 Mar. 6, mean residual 0".5.

・ 光度変化

        m1 = 4.5 + 5 logΔ + 30.0 log r

---------------------------------------------------------------------

軌道要素はM.P.E.C. 2024-G193に掲載されたものです。
光度グラフはComet for Windowsで作成したものです。

---------------------------------------------------------------------

Copyright(C) Seiichi Yoshida (comet@aerith.net). All rights reserved.